Wind_Speed
5 6 6 7 7 7 8 9 10 10 11 11 12 13 13 13 13 14 14 14 15 15 15 14 15 16 18 21 24 26 28 31 33 34 37 42 44 44 47 51 52 51 51 52 50 48 46 44 42 39 38 38 39 38 36 33 26 23 27 31 34 33 34 32 31 32 26 20 21 21 21 24 26 25 23 19 19 20 12 6 10 9 8 9 6 6 9 13
5 6 6 6 6 6 7 8 9 10 10 11 12 13 13 14 14 14 14 14 13 13 13 13 13 14 15 17 18 19 22 26 28 30 35 38 38 40 44 46 49 49 50 51 51 50 48 46 43 41 40 40 41 39 38 34 29 29 30 33 38 36 35 33 30 31 24 14 17 20 20 23 25 23 22 21 20 21 21 16 13 10 9 12 9 7 10 12
6 7 7 7 8 9 9 10 11 11 12 13 13 14 15 15 16 15 16 15 15 15 15 15 15 15 16 17 18 17 18 20 23 28 31 32 34 38 39 41 43 45 47 49 50 50 50 49 45 43 41 42 42 38 35 34 32 33 34 36 38 36 35 34 32 32 29 18 14 17 20 24 25 23 22 22 21 20 21 22 19 14 13 15 15 11 11 11
7 8 9 10 11 11 12 12 13 14 15 15 16 16 17 17 18 18 18 18 18 18 19 19 19 19 19 20 20 19 19 19 23 27 25 27 30 33 34 36 38 40 43 45 48 50 50 50 48 45 42 40 41 37 34 34 35 35 38 40 37 33 32 33 33 32 32 25 17 15 20 25 25 24 24 22 20 21 20 21 23 19 16 16 16 15 12 10
8 9 10 10 11 12 12 13 14 15 16 17 18 18 19 20 20 21 21 21 21 21 21 21 21 22 22 23 22 22 21 17 22 26 22 23 25 27 30 32 33 35 38 41 43 46 47 48 47 47 45 42 37 35 37 37 36 36 39 41 37 34 32 30 31 32 32 29 23 21 22 23 23 23 25 25 22 20 17 18 20 19 19 19 14 13 12 8
8 9 9 10 11 12 13 15 16 16 17 18 19 19 20 21 21 22 23 23 24 24 25 24 24 24 23 24 24 24 21 14 20 26 21 21 21 22 25 27 29 31 34 36 39 41 44 45 45 46 48 47 40 36 39 39 37 38 39 41 39 37 36 32 30 31 32 31 28 27 26 23 24 24 24 26 26 21 15 14 17 17 19 18 9 9 14 10
9 10 11 12 13 14 15 16 17 17 18 18 19 20 20 21 21 22 23 24 25 26 27 27 27 26 25 24 23 25 25 21 26 30 24 22 22 21 22 23 24 26 30 32 34 38 40 41 44 46 47 48 45 40 39 38 38 40 40 40 39 37 37 36 33 31 30 31 29 29 29 26 26 27 25 25 26 24 19 16 15 14 17 16 9 8 13 13
11 12 14 15 15 16 17 18 19 19 19 20 20 21 21 21 22 22 23 24 24 25 26 27 28 28 28 25 23 23 22 24 31 33 27 24 24 23 22 22 22 22 25 29 31 33 35 38 41 44 45 46 46 43 40 37 38 42 43 40 38 37 37 37 36 35 31 30 30 30 31 30 26 27 27 26 26 24 23 21 16 15 18 18 14 12 15 15
12 14 15 16 17 17 19 20 21 21 21 22 22 23 22 22 23 22 22 23 24 25 25 26 26 28 28 26 26 22 18 24 32 33 29 26 26 25 23 22 22 22 23 26 28 31 33 34 36 39 41 41 41 39 38 39 40 42 44 42 39 38 37 35 36 37 36 32 30 30 32 33 28 27 29 27 27 24 22 24 21 19 21 23 20 18 20 19
12 14 16 17 19 20 21 21 22 22 23 23 24 25 25 25 25 24 24 23 24 24 24 24 24 26 27 27 27 23 20 24 29 33 31 28 27 27 26 24 23 23 24 24 26 30 33 31 28 30 33 34 34 35 38 41 43 42 42 42 42 40 37 35 35 35 36 35 34 32 31 33 31 30 33 29 26 24 23 25 22 21 22 22 24 25 25 22
13 16 18 20 21 22 23 23 23 23 24 25 25 26 27 27 27 26 26 25 25 25 25 25 24 25 26 27 28 25 22 23 27 33 31 28 29 27 27 27 24 23 24 25 25 27 32 33 25 21 27 32 32 33 37 40 41 42 42 41 41 40 40 38 36 36 37 37 38 36 32 32 33 36 37 31 27 26 27 25 19 22 24 19 23 28 27 23
18 21 23 24 24 25 25 24 25 25 26 27 27 28 28 28 28 28 27 27 27 27 27 26 26 26 26 29 31 26 23 25 29 33 31 28 28 27 27 27 26 25 23 25 26 26 29 33 31 26 24 25 29 31 33 37 40 41 41 42 41 40 43 44 40 38 39 38 36 37 37 36 37 38 38 33 29 26 27 28 21 22 27 21 21 26 26 24
22 24 25 26 26 26 26 25 26 27 28 29 29 29 29 29 29 28 28 28 28 28 28 27 27 27 29 32 30 25 24 27 28 30 30 28 25 26 27 26 26 26 24 24 26 27 27 27 29 33 29 22 25 27 27 31 38 41 40 41 42 41 44 45 44 42 43 43 37 36 39 41 42 39 36 34 31 28 28 29 25 22 25 25 22 27 27 24
23 25 26 26 26 26 26 26 28 29 29 30 30 30 30 30 29 29 28 28 28 28 28 28 27 27 31 33 29 25 26 26 28 29 29 27 25 25 25 26 26 25 25 25 26 27 28 27 28 32 35 30 22 21 25 28 34 39 40 40 40 42 44 44 45 44 47 48 41 38 41 43 44 40 36 34 32 31 29 29 29 27 26 25 23 26 29 26
23 24 25 25 26 26 27 28 29 30 30 31 30 30 30 30 28 27 27 27 26 27 27 27 26 26 31 32 28 26 26 25 26 28 28 27 26 24 23 22 21 22 24 25 25 27 28 30 33 34 38 36 25 21 25 28 32 35 39 42 42 44 46 45 44 43 47 49 43 40 43 44 44 42 37 35 35 34 31 28 29 33 33 30 25 26 31 29
22 23 24 25 26 27 29 30 31 31 31 31 31 31 30 28 27 27 26 25 25 25 24 24 23 24 26 25 25 24 22 22 21 24 26 25 23 22 22 21 18 19 20 21 24 26 26 28 31 35 35 31 27 25 23 25 33 35 37 42 42 44 45 46 47 46 46 48 45 43 46 44 39 41 39 34 35 35 35 33 32 35 37 35 29 28 32 31
21 23 24 25 27 29 31 31 32 32 32 32 31 30 28 27 27 25 24 24 23 21 20 20 18 21 22 18 20 18 14 15 18 22 21 18 20 20 22 24 22 21 19 18 21 23 24 24 26 30 31 28 27 28 25 26 33 35 36 39 43 46 45 45 47 50 49 48 48 46 49 48 38 38 38 34 34 34 36 39 40 40 38 34 29 29 32 31
22 24 25 27 29 30 32 32 33 34 34 33 30 29 28 27 25 23 22 22 20 17 14 11 11 13 13 10 10 9 7 7 13 20 16 13 16 17 19 23 23 21 18 17 19 21 21 22 23 25 28 29 29 32 31 30 34 37 38 39 43 47 49 47 44 46 47 45 44 46 52 51 40 37 36 33 35 37 37 37 39 39 35 31 29 30 33 30
23 24 25 28 30 31 32 33 35 35 35 32 29 28 26 26 25 22 21 19 16 14 9 7 10 11 7 5 4 7 9 11 16 20 17 15 16 14 16 21 22 20 16 15 19 21 21 21 23 25 29 31 34 36 36 34 35 38 42 42 40 43 50 49 43 42 41 39 40 45 54 52 43 42 39 32 30 33 34 34 37 37 30 28 28 31 33 30
23 24 26 29 31 32 33 35 35 35 34 31 28 25 22 23 20 15 18 21 19 15 11 11 16 17 13 11 9 10 13 15 18 19 17 17 17 15 15 17 18 18 18 19 20 21 22 24 27 30 32 32 35 39 38 36 36 37 41 43 39 42 47 41 41 43 38 37 40 45 52 51 43 42 41 37 33 33 31 27 33 35 29 26 28 30 30 27
22 24 27 30 31 33 34 35 35 33 32 30 28 25 21 21 16 12 19 23 18 17 17 14 17 21 17 13 12 15 17 19 20 18 16 16 16 16 15 16 17 19 21 21 20 20 23 28 30 31 32 32 34 38 40 38 39 39 37 39 39 41 42 38 42 46 39 39 40 41 48 49 46 46 44 42 41 43 38 30 32 33 30 30 29 28 28 26
22 25 28 30 32 33 34 34 33 31 29 28 26 24 21 19 17 16 21 21 13 14 16 10 13 18 16 14 14 16 19 22 23 21 18 17 17 18 17 17 21 22 22 21 22 23 26 30 30 29 31 32 32 36 41 41 40 40 38 37 37 40 42 38 40 43 41 42 41 40 45 46 46 49 46 43 43 46 46 44 43 39 34 34 32 29 28 28
23 25 28 30 32 33 33 33 31 29 27 25 23 22 20 19 18 16 19 21 13 10 14 11 10 12 11 12 13 15 18 20 20 17 15 17 20 21 20 21 23 24 24 24 25 27 28 29 29 29 30 32 34 35 39 42 39 38 39 37 37 40 41 36 37 42 44 44 43 44 45 43 42 43 44 43 43 45 47 48 47 44 40 37 35 32 29 30
24 26 28 30 32 32 32 31 29 27 25 24 23 21 20 18 17 16 18 23 19 9 12 13 10 9 9 11 14 15 17 17 17 14 12 16 20 21 23 23 24 25 26 27 27 28 29 27 26 29 31 33 36 36 37 40 39 38 39 39 36 37 38 36 35 40 45 45 44 44 42 45 46 41 41 44 42 43 45 45 42 43 45 42 39 37 34 33
24 26 28 30 30 30 31 31 28 26 24 22 21 20 20 17 14 17 18 21 21 13 8 8 6 8 9 12 15 12 14 17 17 14 12 16 19 20 23 24 25 27 27 28 28 29 30 27 25 28 33 34 34 36 38 38 38 38 39 41 38 34 35 37 33 33 40 43 47 44 31 34 47 44 39 41 38 38 39 40 41 44 45 44 42 41 37 34
24 26 28 29 29 28 28 29 28 25 24 22 20 17 17 16 13 15 18 16 16 10 5 5 5 8 9 10 11 8 10 12 12 13 14 17 19 20 23 24 26 28 27 27 28 30 29 28 30 29 31 33 34 36 37 37 36 37 39 40 40 37 34 36 37 37 37 36 44 48 33 25 38 46 46 41 35 34 37 37 40 44 44 43 43 42 38 35
24 26 27 28 27 26 26 27 26 24 23 21 18 16 14 14 13 14 14 10 9 4 4 6 6 10 10 9 10 9 9 9 11 14 14 16 18 19 22 25 26 27 25 25 27 29 27 28 32 32 30 32 35 36 36 38 38 36 36 36 38 42 38 35 38 39 38 36 38 47 46 33 31 42 47 44 37 34 38 40 41 43 44 45 44 41 39 39
24 25 26 26 26 25 26 27 25 22 20 18 16 15 13 12 12 12 10 5 5 3 4 7 8 11 11 9 12 12 13 14 16 16 13 14 17 18 23 25 26 27 25 25 27 27 28 30 31 32 32 32 35 36 34 36 39 36 32 32 37 42 40 37 38 36 37 39 33 40 47 32 27 39 39 39 42 38 41 45 43 42 43 43 42 39 38 39
24 25 25 25 24 24 24 25 23 21 20 18 17 15 13 11 10 10 6 4 4 5 5 8 10 11 10 11 13 14 16 18 18 17 15 14 16 19 23 23 25 28 27 28 29 25 26 30 28 30 33 32 32 33 34 36 37 35 32 32 34 38 42 40 36 37 36 31 27 37 44 29 24 38 37 32 37 41 44 44 39 39 42 41 38 37 37 39
23 25 24 24 23 23 24 25 24 23 20 20 18 15 13 11 10 8 5 5 7 8 9 11 11 11 13 15 16 18 19 20 21 22 20 16 16 19 22 20 22 28 28 28 31 29 27 26 26 28 32 31 30 31 34 36 35 33 33 35 33 37 45 39 34 39 30 19 26 39 45 34 18 26 38 36 35 39 41 38 35 36 38 38 36 35 36 38
23 24 24 23 22 22 24 25 24 22 19 19 17 15 12 10 9 5 4 7 11 11 10 9 10 16 19 19 22 22 21 22 21 20 21 19 18 20 22 21 21 25 27 27 28 30 30 28 26 27 30 29 28 31 33 34 37 35 34 36 32 32 40 34 32 36 19 11 29 40 40 33 18 21 35 38 41 45 37 32 37 39 38 37 35 35 36 36
22 24 23 22 21 20 20 21 21 19 17 18 17 15 12 9 6 7 9 14 11 8 11 13 17 22 21 21 25 24 22 26 25 19 19 20 21 21 23 23 22 22 24 25 25 27 30 31 26 24 28 30 28 31 33 34 38 38 37 38 28 18 22 21 20 21 13 14 30 38 35 30 27 31 34 33 39 44 40 35 35 38 40 39 36 35 35 36
22 23 22 21 19 19 19 20 21 19 17 18 18 15 9 6 6 9 14 16 12 14 20 21 23 24 21 22 26 23 21 27 24 18 17 18 22 23 23 25 23 22 21 22 23 23 24 26 27 23 25 30 30 30 32 35 39 40 41 39 24 10 9 12 13 11 11 21 34 40 34 27 31 35 35 36 34 33 37 39 35 33 38 39 36 35 34 35
21 22 22 21 19 18 20 20 20 20 18 18 18 14 7 7 9 13 17 16 18 22 22 22 23 22 19 19 21 19 18 18 13 13 15 17 21 22 22 24 25 25 22 19 20 22 20 19 25 27 23 25 32 32 29 32 38 39 40 38 29 21 14 10 12 10 10 20 34 36 26 22 30 32 31 35 33 26 27 33 36 33 34 36 36 36 34 35
21 22 21 20 20 19 19 19 19 19 19 18 16 11 7 9 11 15 18 20 24 25 22 22 21 17 17 15 14 14 11 9 5 10 13 15 19 19 19 21 25 26 22 18 17 21 22 16 21 30 26 21 29 33 31 31 36 37 39 39 34 31 24 15 16 19 16 15 22 25 21 25 33 36 34 32 30 30 28 28 34 33 32 34 35 37 35 34
21 22 20 20 21 20 20 20 19 17 18 17 13 8 8 10 12 14 17 21 23 24 24 23 16 13 15 13 14 14 8 7 6 9 10 13 17 16 16 17 22 25 23 21 18 17 20 17 16 24 27 26 28 28 29 32 33 34 37 38 33 31 28 21 18 21 18 10 12 20 23 28 30 28 31 29 23 29 32 31 31 32 33 32 34 38 36 34
20 21 19 19 20 19 20 21 17 16 18 16 10 8 10 10 11 14 18 20 21 21 21 19 14 12 13 13 17 16 7 5 5 9 8 10 14 15 15 14 17 24 24 22 21 16 14 14 15 19 24 31 31 24 27 33 31 30 35 35 31 30 29 24 15 12 12 8 10 22 27 29 27 19 22 28 24 24 29 29 25 27 29 30 34 37 34 33
20 20 17 18 20 20 21 21 16 16 18 16 13 12 13 13 12 15 18 19 20 21 18 13 10 11 11 14 20 14 4 4 3 7 7 8 10 10 15 15 15 20 22 21 20 14 8 10 14 19 22 28 31 26 29 35 34 31 34 35 32 26 24 24 14 7 11 7 8 23 29 27 28 22 20 28 29 26 27 26 24 24 25 27 33 33 29 33
20 19 16 19 22 21 22 20 16 16 18 17 15 12 13 15 15 17 18 17 19 20 17 11 8 10 13 15 17 14 8 5 4 5 4 6 7 6 13 15 14 17 18 19 18 10 4 6 10 18 24 26 29 30 31 34 36 34 33 36 36 28 22 23 17 12 13 8 6 17 21 19 26 27 21 23 28 29 28 25 25 26 24 25 30 30 29 34
21 20 17 20 21 20 21 20 16 17 18 18 15 13 15 18 20 21 18 16 18 18 16 13 10 12 13 13 13 13 12 6 4 6 4 3 5 6 12 13 13 15 14 15 14 8 5 6 10 16 23 27 28 29 30 31 35 37 35 35 36 31 23 20 21 21 17 10 7 9 10 16 25 27 24 22 23 28 26 23 25 26 26 26 28 29 31 35
19 17 15 19 21 20 22 21 18 18 19 19 18 17 18 20 22 23 19 16 17 16 15 14 11 11 11 12 12 11 11 8 3 3 3 4 3 4 12 12 10 13 13 13 14 10 7 9 13 17 18 27 27 25 26 28 32 35 33 31 33 30 24 14 13 21 22 14 12 9 7 16 22 22 24 23 22 25 25 23 24 25 26 28 29 30 32 36
15 12 12 16 19 20 21 21 19 18 20 22 19 17 17 18 20 22 22 21 18 14 14 14 10 9 10 11 12 11 12 11 5 2 3 5 4 3 9 11 11 12 14 13 12 11 8 8 12 17 15 21 22 22 25 24 28 33 28 28 32 31 28 18 11 17 22 19 20 17 10 12 17 19 23 22 22 24 26 26 25 24 25 27 29 30 32 36
13 11 12 14 17 19 19 19 19 17 18 19 16 12 12 14 16 20 23 25 19 11 10 11 9 9 10 10 11 12 13 11 7 4 5 5 5 4 6 10 13 13 13 12 9 10 10 7 9 12 11 16 20 23 26 23 25 31 28 28 32 32 29 24 19 21 20 18 19 15 9 10 13 15 20 23 21 20 21 25 25 23 25 27 29 31 32 34
12 10 13 15 18 18 16 16 18 20 19 18 16 13 10 10 14 19 23 25 21 14 11 9 8 8 10 10 12 13 12 10 7 6 6 5 4 1 5 10 13 13 13 11 7 8 8 6 7 7 6 12 17 19 24 25 25 29 29 27 30 33 31 26 24 20 14 14 18 12 7 12 14 11 14 19 21 18 17 20 23 23 25 26 28 31 31 32
13 9 12 19 20 17 15 16 19 23 23 22 22 21 16 13 15 19 24 26 23 20 18 11 7 9 8 8 12 14 12 11 9 7 7 5 4 2 5 10 12 12 11 8 6 6 5 4 7 8 5 7 11 13 19 24 24 26 28 27 28 31 32 30 25 15 7 11 19 15 7 13 14 11 12 15 18 17 16 20 23 23 24 25 26 30 33 34
14 9 11 20 20 16 16 20 22 23 23 22 25 27 24 21 20 21 23 25 24 26 26 16 8 9 9 7 11 13 11 10 9 7 7 5 4 4 5 11 10 10 12 9 7 7 6 6 8 11 12 10 9 15 21 22 22 24 26 27 28 28 30 31 24 15 12 14 19 15 11 17 14 12 13 15 17 16 16 22 24 23 24 25 24 28 32 32
15 9 14 18 16 13 14 17 19 20 19 19 22 28 29 26 24 23 21 21 23 26 26 21 17 17 11 8 10 10 8 8 9 10 9 7 4 3 4 10 10 12 13 11 10 9 8 9 9 11 16 15 9 12 21 23 22 24 25 26 28 28 28 30 26 19 18 15 15 14 15 17 11 11 14 16 17 16 15 19 21 21 23 23 21 27 33 33
15 13 16 16 15 13 13 14 14 15 17 17 19 24 28 27 25 26 24 23 26 26 23 23 25 27 20 10 10 10 8 9 10 9 9 10 6 2 4 9 11 12 13 10 10 9 7 8 8 9 13 14 13 13 19 26 24 23 25 25 26 25 23 25 26 24 21 16 14 14 13 13 11 12 15 16 17 17 15 15 18 19 21 20 16 20 29 33
15 14 16 17 16 16 15 14 14 15 18 20 20 21 24 25 25 25 24 24 25 24 24 26 27 29 27 18 11 12 10 10 9 6 8 10 8 5 5 8 11 12 11 8 9 10 7 7 7 8 11 13 14 15 14 22 26 24 26 25 25 25 22 22 24 24 22 19 14 11 12 13 13 14 16 15 14 15 15 15 15 15 16 18 14 14 22 27
17 15 15 16 16 15 13 12 14 17 20 21 20 18 20 24 26 26 25 23 21 21 24 27 27 28 27 23 16 12 10 10 10 9 7 6 6 7 7 7 9 12 12 10 8 10 10 6 4 5 11 13 13 15 16 19 26 26 26 25 26 27 25 23 24 23 22 21 16 10 11 12 10 14 17 16 13 12 13 14 13 10 11 14 14 14 18 23
20 18 17 18 17 14 11 9 11 16 18 18 18 19 22 24 25 28 25 18 16 20 23 23 24 27 27 23 19 13 6 9 13 12 10 7 6 9 11 9 7 8 13 13 8 8 11 8 5 6 11 13 13 14 16 15 18 23 27 27 26 27 27 25 25 23 20 20 18 14 14 11 6 10 14 13 10 8 6 9 11 10 10 11 12 14 16 19
21 19 18 18 18 16 14 11 10 12 15 17 18 19 21 23 24 26 25 19 18 21 23 21 22 25 26 23 22 20 13 8 11 11 11 11 10 11 13 11 7 6 10 13 10 8 9 9 7 7 9 12 10 10 12 10 9 14 23 28 26 26 27 26 26 25 21 20 19 18 18 15 8 10 14 10 9 10 10 11 13 13 12 11 11 12 14 17
Wind_Direction
320 318 315 317 315 314 314 312 312 309 308 305 303 302 298 296 293 291 290 288 287 285 285 285 282 279 273 270 266 263 261 259 258 257 255 253 251 249 248 246 245 243 242 241 239 238 237 235 233 232 232 232 231 229 226 222 218 221 222 223 226 229 229 229 229 234 246 241 227 229 228 228 225 226 230 237 239 235 244 237 224 228 253 260 216 212 202 192
332 329 327 326 323 322 319 315 313 311 308 306 305 302 300 298 296 295 293 290 289 286 285 284 284 283 282 279 275 270 266 264 261 257 255 254 254 251 249 247 246 245 243 241 240 238 237 236 234 233 232 232 233 231 229 224 220 221 223 226 227 230 232 230 231 237 244 219 214 235 233 222 220 228 234 233 232 230 238 244 237 228 238 252 236 215 202 201
354 347 343 339 334 331 325 323 319 315 312 308 305 301 299 296 294 293 289 288 286 284 283 281 280 280 282 282 282 280 274 272 268 259 255 255 255 253 251 249 247 245 244 242 240 239 237 235 233 231 232 233 233 231 230 226 222 222 224 230 231 231 233 232 233 239 243 231 229 243 229 224 228 234 235 231 228 225 235 243 240 228 221 247 258 235 209 210
352 343 337 331 327 323 320 317 313 312 310 307 306 303 301 299 297 294 291 288 284 283 281 280 280 279 279 279 281 282 279 281 274 263 259 257 255 255 254 251 248 245 244 242 240 239 237 235 233 230 229 231 232 229 226 224 222 223 225 231 233 231 232 233 234 238 241 240 244 239 222 227 238 238 232 228 229 230 242 243 238 239 233 241 249 231 209 206
334 326 319 314 310 307 305 305 305 305 304 303 302 299 298 297 296 296 295 293 290 287 284 282 280 279 279 279 280 279 280 288 277 268 266 263 260 259 257 254 250 246 244 242 240 239 238 236 234 231 229 228 229 226 225 222 222 226 227 231 233 231 234 234 233 236 239 241 241 235 227 231 241 239 227 227 230 231 244 240 232 240 245 249 249 233 232 229
321 315 310 308 307 307 308 309 310 309 308 306 303 300 298 295 294 293 292 292 292 291 289 287 284 281 280 278 279 278 276 277 273 272 270 268 268 264 261 258 253 248 244 241 238 236 236 235 232 230 229 227 225 224 226 223 221 228 231 231 232 232 235 236 235 235 238 242 239 235 236 236 239 239 230 228 233 237 242 237 235 238 237 246 251 230 242 247
324 323 322 323 322 323 322 321 320 317 315 312 309 306 302 300 297 294 292 289 287 287 287 287 286 285 282 280 279 277 275 270 267 269 270 271 271 266 266 263 256 250 244 240 236 233 233 232 231 230 229 228 226 225 225 224 223 228 232 232 232 233 235 236 237 237 238 241 238 236 239 238 236 240 239 231 232 239 238 234 239 230 214 223 244 249 249 249
335 335 335 333 332 331 328 326 324 321 318 316 314 310 308 307 303 301 297 293 289 285 284 285 286 285 283 282 278 276 278 275 269 268 268 268 267 265 264 262 259 252 244 239 232 228 227 227 228 228 227 227 226 226 225 225 226 228 232 233 232 233 234 235 236 238 240 240 239 239 239 237 235 236 239 236 233 238 237 233 233 225 215 218 237 264 261 255
341 341 340 336 333 330 328 326 323 322 321 319 318 315 314 313 310 308 303 299 294 289 285 283 283 283 283 282 280 277 272 271 271 271 269 264 263 263 261 259 256 251 245 239 231 223 220 221 224 223 224 227 227 227 226 226 227 228 231 233 232 233 233 234 235 236 239 239 240 243 240 236 235 233 237 239 236 237 234 231 236 233 223 220 230 255 260 256
342 342 339 336 332 328 325 323 321 320 319 318 318 316 315 313 311 309 306 302 297 292 289 284 280 279 279 278 278 274 267 268 270 271 271 268 264 261 259 259 255 250 245 239 232 224 217 214 219 222 223 226 228 228 225 225 228 229 232 233 233 233 233 233 234 233 235 237 237 241 242 237 237 234 235 239 236 233 230 230 238 231 218 218 228 240 248 250
331 333 332 331 328 325 322 319 318 316 315 315 314 312 311 310 308 306 304 301 297 293 289 285 280 275 274 273 270 267 265 266 267 269 271 269 266 261 257 256 254 251 245 239 233 224 217 211 204 214 227 227 226 229 227 225 228 230 232 235 234 234 235 233 233 233 232 235 235 237 242 240 238 235 234 237 235 234 229 225 230 224 219 223 227 233 243 251
319 322 324 324 323 322 320 317 315 314 313 313 311 310 308 306 304 302 300 298 295 292 288 285 281 276 272 268 265 265 265 263 265 270 271 266 264 262 257 253 252 251 244 239 234 224 220 213 201 200 215 224 226 229 230 226 227 231 232 236 236 234 234 232 233 234 231 234 234 233 240 240 237 236 233 232 233 235 227 223 231 228 219 219 232 243 250 254
313 317 319 320 321 320 319 317 315 315 314 312 310 309 307 305 304 301 299 297 293 290 287 283 279 278 274 269 268 268 264 262 263 266 267 267 262 259 258 253 249 249 246 240 233 225 217 214 210 205 199 210 227 228 229 226 225 229 230 233 236 235 235 231 230 233 230 233 235 231 238 240 235 235 233 229 231 234 230 228 235 230 216 213 233 253 252 249
314 316 318 320 320 320 319 317 316 315 314 312 310 310 308 306 304 302 299 295 292 288 285 282 279 277 272 271 271 267 263 262 263 263 264 266 261 255 255 255 251 248 247 241 235 227 218 212 213 212 204 204 215 222 229 228 223 225 228 231 232 232 236 231 227 232 231 230 233 231 235 237 234 234 233 229 231 232 231 230 228 227 220 214 226 252 254 250
317 318 320 321 321 321 319 318 317 316 316 314 314 313 310 308 306 304 300 296 292 287 284 281 280 277 276 277 275 268 264 263 264 265 262 259 258 254 251 254 257 252 247 243 236 228 223 218 214 214 210 204 204 216 228 227 221 220 222 226 227 227 234 232 226 230 229 227 230 228 230 234 232 232 233 231 231 232 232 228 225 228 230 227 227 244 253 252
322 322 323 322 323 323 322 322 320 320 319 318 319 317 313 312 309 306 303 299 292 288 286 282 279 277 278 280 279 275 273 271 268 263 261 259 257 252 246 244 244 245 244 243 239 229 224 223 221 218 213 210 214 219 223 221 218 217 218 221 223 223 228 230 227 229 229 225 227 228 229 233 232 230 233 233 230 230 231 229 228 231 235 239 234 234 246 251
325 324 325 325 326 327 326 325 324 323 322 322 323 319 317 315 312 311 307 300 295 294 289 283 278 276 278 281 280 279 282 286 279 270 267 267 260 249 243 241 238 240 241 242 242 234 225 221 223 222 217 218 221 217 219 217 210 210 215 218 218 220 225 227 226 229 228 224 226 230 232 235 234 230 232 233 229 228 229 228 230 232 236 241 236 230 239 246
327 326 327 328 329 330 329 327 325 325 324 325 325 322 321 318 314 313 305 297 300 300 292 281 264 264 281 297 291 280 278 274 265 269 273 268 264 255 243 240 240 243 243 246 245 235 228 222 222 224 220 219 216 214 217 214 205 205 209 214 217 219 224 224 221 224 224 220 223 230 235 235 231 229 234 233 231 235 235 229 226 228 232 236 235 229 230 237
329 330 330 331 332 331 330 328 327 327 326 326 326 326 325 318 316 317 307 301 304 298 290 295 279 263 244 235 293 301 282 269 260 268 276 271 272 268 247 240 241 242 237 238 241 232 222 219 219 221 219 216 214 214 217 214 210 209 211 216 216 216 222 223 221 223 218 214 221 228 232 232 228 228 235 235 232 237 241 237 225 219 224 232 232 226 225 231
332 332 333 333 333 333 331 330 330 328 327 327 327 329 326 319 319 317 302 300 304 292 268 269 277 272 252 239 266 280 270 271 270 273 280 280 280 273 253 243 242 241 234 225 230 228 217 216 218 218 217 215 215 215 217 218 218 218 217 219 219 218 224 224 219 222 219 216 227 230 229 230 227 227 232 235 234 235 239 235 218 212 218 227 226 225 225 228
333 333 334 334 334 334 333 332 331 330 329 329 329 331 330 325 322 305 291 292 292 280 264 249 246 254 261 257 253 255 256 259 260 259 260 266 270 265 251 239 234 236 234 226 226 225 217 218 220 219 219 217 218 218 217 220 223 225 224 221 222 221 223 221 218 224 225 223 231 231 227 231 230 229 234 236 234 234 235 228 220 220 223 225 221 223 228 228
334 334 334 334 335 336 334 333 333 331 331 331 330 331 332 326 318 307 298 296 283 268 269 252 230 244 260 266 260 256 257 257 257 256 252 251 248 247 245 236 232 233 234 230 226 225 219 221 223 221 221 219 220 221 219 221 224 229 231 226 222 221 222 223 223 224 221 220 230 228 223 228 229 227 233 238 235 233 234 232 234 235 228 224 223 223 228 227
333 334 335 335 337 337 336 335 334 333 331 332 331 332 330 322 316 310 303 303 297 267 271 265 243 254 262 266 270 264 260 263 265 262 256 251 243 240 240 236 235 233 233 230 224 224 223 222 223 221 222 221 221 222 220 222 226 228 229 227 223 221 219 218 218 219 218 220 228 231 227 230 232 227 227 236 238 234 233 231 235 239 235 230 228 226 224 223
333 335 336 337 339 339 337 336 337 334 333 335 334 333 330 324 320 316 311 311 311 293 276 275 260 263 265 256 259 254 253 260 263 260 248 243 241 239 238 234 236 236 232 230 226 226 227 224 223 222 221 220 220 221 219 220 225 226 225 224 223 220 216 216 216 217 221 224 227 230 231 233 236 232 225 227 234 236 231 226 231 240 241 237 232 227 224 223
334 336 337 338 340 342 340 339 340 338 336 337 337 335 330 329 326 321 322 317 315 318 295 279 243 231 241 246 252 248 249 258 264 267 254 242 238 238 240 234 234 237 232 229 229 230 230 226 223 223 222 221 221 221 219 218 221 225 225 223 222 223 219 218 218 214 217 221 224 226 227 231 232 233 229 219 222 234 231 225 232 239 237 234 229 225 225 225
335 336 338 340 342 345 344 342 343 342 339 338 340 339 330 330 332 327 328 314 305 315 277 247 216 228 247 256 264 271 272 270 263 260 257 250 241 235 240 236 231 236 233 229 231 232 231 227 225 225 223 221 221 222 219 218 220 223 223 220 222 228 226 218 217 218 219 219 220 221 224 232 229 232 235 223 217 227 230 229 232 236 232 226 221 220 222 224
336 337 340 341 343 346 348 347 346 344 342 341 343 343 334 333 334 332 334 309 287 302 225 228 237 254 266 264 262 265 268 272 265 261 256 251 246 236 237 235 230 233 231 229 232 229 226 225 225 226 225 221 220 222 219 216 221 223 219 217 221 225 227 223 219 219 222 223 221 219 224 232 230 230 231 228 226 227 229 229 227 230 227 217 215 219 221 224
336 339 342 343 344 346 350 350 347 347 348 349 349 349 346 340 332 333 336 302 288 314 233 237 261 277 281 262 254 255 258 273 281 277 262 247 243 234 234 234 230 231 227 228 233 228 222 225 224 222 223 222 220 220 217 215 221 223 216 216 219 220 223 226 225 222 221 224 223 219 220 225 231 229 224 224 228 228 228 227 223 224 221 213 215 221 222 230
337 340 344 344 344 345 348 349 349 354 358 357 357 357 351 342 335 329 305 266 305 311 256 260 278 288 282 258 254 260 265 272 274 273 267 249 236 231 233 233 229 232 231 229 234 232 226 227 226 222 222 222 222 220 217 216 219 220 218 219 218 218 223 227 228 231 228 223 221 219 217 218 228 227 220 218 220 222 226 224 220 221 220 216 217 222 227 239
338 341 345 345 344 345 347 349 354 0 3 2 1 357 348 338 332 318 265 263 305 298 287 285 279 277 274 267 266 267 271 271 269 275 271 245 225 229 236 234 229 233 236 233 233 234 234 233 229 226 223 220 221 221 217 217 216 217 219 220 217 216 219 224 229 231 233 225 222 223 218 214 226 224 217 220 222 223 226 221 216 219 218 218 219 225 232 240
339 342 346 346 345 348 350 352 357 359 1 3 2 353 343 329 314 279 251 306 306 294 299 292 279 281 281 281 280 276 276 271 265 272 270 243 221 223 229 228 223 228 237 236 234 235 236 237 231 226 222 220 222 221 218 216 214 216 218 218 221 214 208 215 226 227 230 224 222 224 216 207 216 219 212 219 227 230 232 224 221 221 217 218 221 228 232 231
340 343 346 346 347 350 351 353 356 356 360 2 359 354 348 329 290 250 283 316 315 313 325 316 305 302 294 287 286 283 276 273 266 261 262 244 223 221 223 220 213 217 229 231 232 236 236 234 231 226 222 221 223 219 212 210 211 215 217 217 221 209 198 207 220 222 227 226 220 218 215 213 223 226 218 220 228 231 231 227 225 222 217 218 220 223 225 219
340 344 345 346 347 349 351 356 357 356 358 358 356 358 351 311 283 289 309 321 319 321 324 320 316 314 304 293 293 291 281 282 275 252 248 237 222 225 225 218 214 214 222 226 227 231 233 230 227 229 224 219 221 218 208 204 208 213 214 215 217 202 193 203 204 211 220 222 219 213 211 220 230 229 222 222 228 229 225 225 226 221 215 217 216 215 218 217
340 344 344 345 348 349 354 357 355 353 353 354 358 360 333 283 293 311 319 320 318 320 320 319 319 318 312 302 302 301 286 288 278 230 231 228 223 230 226 216 215 216 224 231 227 224 224 220 220 223 221 215 219 222 214 204 204 209 209 211 216 212 204 201 198 202 205 210 215 212 209 216 224 229 225 223 227 227 221 223 225 220 214 216 213 211 217 218
341 345 344 346 349 350 355 354 352 352 348 348 357 351 308 291 301 313 320 321 324 325 321 324 326 320 320 322 321 314 288 283 262 213 224 224 224 232 225 215 212 213 224 234 232 225 218 220 221 215 209 209 216 221 223 213 204 204 207 212 217 212 206 210 209 206 208 211 210 209 214 218 222 229 232 229 225 220 221 226 225 215 208 211 212 210 213 212
342 345 346 349 351 352 353 350 349 352 345 345 352 331 300 300 301 309 321 322 326 327 324 331 339 327 329 341 343 338 317 293 261 220 223 225 228 233 225 217 211 211 220 228 233 222 211 219 221 210 211 212 214 219 220 211 201 199 207 214 214 206 204 209 213 213 216 222 206 203 213 221 226 229 226 223 220 215 220 229 225 208 201 208 210 207 208 209
343 347 348 351 354 354 352 349 348 350 348 347 342 316 310 317 309 310 319 321 323 324 325 331 335 333 338 337 337 342 330 304 252 220 227 224 226 227 220 218 212 213 218 225 236 229 210 219 211 207 220 211 203 214 216 205 199 198 203 207 203 201 206 206 204 211 216 217 204 206 212 218 224 226 212 213 218 214 214 221 215 198 199 208 209 210 213 212
344 347 346 350 358 0 355 351 348 349 352 350 339 323 318 326 325 318 320 323 322 322 323 321 315 329 339 327 333 343 326 310 251 226 246 236 226 211 209 216 213 214 218 223 236 241 230 237 218 210 223 211 198 211 220 213 211 207 202 203 203 204 210 208 203 198 202 207 204 209 216 218 217 217 208 209 213 209 207 211 205 196 201 207 208 212 214 211
344 347 348 355 0 0 356 352 351 353 355 351 341 325 316 319 322 324 327 326 323 321 323 320 304 317 327 321 330 338 330 320 251 253 277 241 236 201 203 218 213 211 217 219 230 247 252 253 235 217 215 210 205 214 224 220 212 208 206 206 209 214 213 205 207 210 200 202 210 208 216 222 216 213 209 205 203 201 204 207 200 196 199 201 205 211 210 208
347 348 352 358 358 357 356 355 357 356 351 347 339 325 320 315 315 326 334 329 322 319 322 326 313 312 320 321 326 331 333 334 253 276 319 256 252 215 203 214 213 209 213 216 224 250 261 228 236 231 209 202 208 215 220 215 203 203 208 207 206 214 218 206 205 214 209 203 213 206 213 221 214 210 213 210 197 194 203 206 198 197 202 204 207 209 204 204
350 350 350 355 354 354 355 356 0 354 343 343 340 327 322 317 319 332 342 340 330 320 324 335 325 310 315 318 320 324 327 328 286 277 307 286 283 202 197 206 211 203 198 207 217 235 248 214 230 254 222 200 208 211 208 207 201 201 208 210 205 207 215 210 199 213 217 213 209 207 216 216 208 208 217 212 196 193 200 202 197 199 205 207 208 207 203 203
349 345 342 352 352 349 351 358 2 349 336 339 336 321 316 318 326 339 348 349 342 325 324 336 333 315 312 312 313 318 323 321 305 278 280 282 290 236 205 200 199 194 191 203 214 221 232 210 229 265 244 203 206 208 205 207 202 201 207 212 206 204 212 215 199 208 216 214 207 207 216 211 199 205 214 207 193 193 199 199 198 200 202 202 202 200 198 201
348 337 333 351 354 345 345 357 2 351 340 338 336 325 319 323 331 337 344 347 345 336 321 326 337 324 309 311 311 313 323 324 309 297 295 296 301 266 207 189 190 193 197 206 209 211 224 217 226 261 245 204 203 209 213 217 208 204 207 207 202 202 208 211 202 202 213 214 204 202 214 196 177 189 207 202 187 181 191 199 200 199 197 196 196 195 195 200
355 341 332 347 353 343 341 351 353 352 353 355 0 1 347 340 339 333 337 340 339 342 337 324 335 326 304 308 309 306 317 316 302 306 307 309 329 285 189 185 189 194 204 211 203 201 218 221 216 235 224 198 202 210 213 216 214 209 206 204 204 203 207 213 211 209 221 221 204 203 215 190 167 161 185 189 180 174 182 192 196 196 196 197 199 201 203 206
6 359 332 338 345 343 344 345 343 348 357 2 6 3 351 353 355 338 334 336 335 345 352 337 314 314 310 308 308 306 307 297 287 306 312 298 319 331 187 186 191 196 203 210 205 202 218 232 216 217 221 198 196 203 204 205 211 212 208 207 208 205 207 217 223 219 222 222 217 218 186 161 164 163 167 174 178 180 180 183 189 192 193 200 206 207 208 209
18 18 323 325 336 344 344 339 336 345 352 353 357 358 353 353 354 343 337 336 334 342 349 346 328 321 314 299 302 302 296 286 273 280 302 296 308 322 203 194 197 200 200 200 205 213 228 244 234 236 253 249 210 197 198 200 203 207 210 211 211 214 215 216 223 221 203 217 236 228 146 133 158 172 173 183 186 186 184 183 187 186 185 194 202 204 205 207
14 354 310 315 330 340 338 328 325 333 338 336 340 349 350 348 346 342 340 336 332 336 342 346 349 345 328 292 294 299 296 292 270 260 278 283 287 315 211 200 200 209 216 218 219 227 242 244 239 252 262 264 255 220 207 206 207 206 209 211 214 223 223 213 213 215 205 213 238 219 150 134 163 180 177 186 189 186 180 178 185 190 188 190 192 192 194 197
358 332 321 330 332 330 330 322 316 329 345 343 333 335 341 341 338 338 341 337 335 337 337 340 345 347 345 327 293 289 294 295 276 257 270 270 254 228 201 200 199 211 225 229 224 228 246 248 246 266 266 258 272 268 223 207 209 208 208 210 211 215 216 210 209 211 211 218 233 219 176 152 172 186 179 178 181 181 172 168 182 192 197 200 197 192 191 192
352 340 337 337 332 328 331 333 333 340 350 349 335 327 331 334 333 336 340 336 333 333 331 336 343 343 346 350 321 287 278 287 281 256 261 264 245 220 209 203 203 211 218 221 220 220 231 255 260 271 275 264 269 281 249 214 211 210 208 211 211 211 213 214 211 210 215 226 233 230 212 189 174 170 170 162 157 163 164 164 169 176 192 203 204 206 208 204
351 351 346 338 336 334 334 346 348 337 334 333 327 321 325 330 333 335 336 335 331 326 326 334 338 334 338 350 340 301 267 263 266 257 263 271 238 215 209 204 208 216 216 214 219 224 226 247 275 273 279 276 264 273 272 235 215 210 209 213 214 212 212 214 213 215 223 229 230 230 225 214 178 158 167 166 150 145 151 158 164 171 192 204 202 207 221 221
350 351 350 347 348 341 333 349 351 333 324 319 318 323 325 329 333 330 330 335 330 323 323 328 329 327 335 349 351 343 310 259 257 262 272 283 262 226 207 200 200 209 213 211 213 227 223 231 281 294 278 272 262 268 276 251 222 217 215 213 214 213 212 213 217 225 229 228 229 228 225 233 209 168 178 182 173 173 178 182 194 201 203 210 211 211 220 225
351 350 348 349 353 349 338 338 341 331 316 305 310 320 321 322 328 328 329 334 332 327 325 324 325 329 336 345 350 354 349 290 262 265 260 256 258 238 210 202 212 219 217 211 208 223 227 229 258 286 277 267 257 263 274 275 271 249 222 212 212 213 211 212 216 221 225 227 234 232 223 227 222 182 185 192 197 216 226 215 216 222 215 210 212 214 225 231
Height
3103 3102 3102 3101 3100 3100 3099 3099 3098 3098 3097 3096 3096 3095 3095 3094 3093 3093 3093 3092 3092 3092 3093 3093 3093 3092 3092 3092 3092 3093 3093 3094 3094 3095 3095 3096 3099 3102 3104 3106 3108 3112 3115 3118 3122 3126 3129 3132 3135 3138 3140 3141 3142 3144 3148 3150 3153 3156 3155 3154 3152 3152 3152 3153 3156 3155 3155 3155 3157 3159 3160 3161 3162 3163 3164 3164 3165 3164 3165 3168 3168 3168 3168 3168 3171 3170 3169 3170
3102 3102 3101 3101 3100 3100 3099 3099 3098 3097 3097 3096 3095 3094 3094 3093 3092 3092 3091 3091 3091 3091 3091 3091 3091 3090 3090 3090 3090 3091 3091 3091 3091 3091 3091 3093 3095 3097 3098 3100 3104 3107 3110 3113 3117 3121 3124 3127 3132 3135 3136 3137 3138 3141 3144 3147 3150 3150 3150 3148 3146 3147 3149 3152 3153 3153 3154 3154 3154 3159 3160 3160 3161 3162 3162 3162 3164 3165 3165 3167 3168 3168 3167 3167 3170 3171 3169 3169
3101 3100 3100 3100 3099 3099 3098 3097 3097 3096 3096 3095 3094 3093 3093 3092 3091 3091 3090 3090 3090 3089 3089 3089 3089 3089 3088 3088 3088 3089 3089 3089 3088 3087 3089 3091 3091 3092 3094 3096 3100 3103 3105 3108 3112 3115 3118 3122 3127 3130 3132 3133 3134 3138 3140 3143 3145 3145 3146 3142 3140 3145 3148 3150 3151 3151 3153 3152 3152 3157 3158 3159 3159 3160 3161 3161 3162 3164 3165 3166 3167 3167 3166 3165 3169 3171 3168 3168
3100 3100 3099 3099 3098 3098 3097 3097 3096 3095 3095 3094 3093 3092 3091 3091 3090 3089 3089 3089 3088 3088 3088 3087 3087 3087 3087 3086 3086 3086 3087 3087 3084 3084 3087 3088 3088 3089 3090 3092 3095 3098 3100 3103 3107 3110 3114 3117 3121 3125 3127 3128 3130 3134 3136 3138 3139 3140 3139 3137 3138 3144 3146 3147 3149 3149 3151 3151 3151 3154 3156 3157 3157 3157 3159 3159 3160 3162 3163 3164 3165 3166 3165 3163 3166 3169 3167 3167
3100 3099 3099 3099 3098 3098 3097 3096 3095 3095 3094 3093 3092 3091 3090 3089 3088 3087 3087 3086 3086 3086 3085 3085 3085 3085 3085 3084 3084 3084 3085 3085 3081 3082 3085 3085 3086 3087 3087 3089 3091 3094 3096 3099 3102 3105 3109 3112 3117 3120 3122 3123 3126 3129 3130 3133 3136 3136 3134 3134 3138 3142 3142 3144 3147 3147 3148 3149 3151 3152 3153 3154 3155 3155 3156 3157 3158 3159 3161 3162 3163 3165 3164 3161 3163 3166 3166 3165
3100 3100 3100 3099 3098 3097 3096 3095 3094 3093 3092 3091 3090 3089 3088 3088 3087 3086 3085 3084 3084 3083 3083 3083 3083 3083 3083 3082 3082 3082 3083 3083 3079 3079 3083 3084 3085 3085 3085 3086 3087 3090 3092 3094 3097 3100 3103 3107 3111 3114 3116 3118 3121 3124 3125 3129 3133 3132 3131 3132 3135 3138 3140 3141 3143 3145 3146 3147 3149 3150 3151 3152 3152 3152 3153 3155 3156 3157 3159 3161 3161 3164 3164 3160 3161 3164 3164 3164
3101 3100 3099 3098 3097 3095 3094 3093 3092 3091 3090 3089 3088 3087 3086 3085 3085 3084 3083 3083 3082 3081 3080 3080 3079 3080 3080 3080 3080 3079 3080 3080 3077 3077 3081 3082 3082 3083 3083 3083 3084 3086 3088 3089 3092 3095 3099 3102 3105 3108 3112 3113 3116 3119 3122 3126 3129 3128 3127 3129 3132 3135 3137 3138 3140 3142 3143 3144 3146 3148 3149 3149 3150 3150 3151 3152 3154 3156 3158 3159 3160 3161 3163 3161 3159 3160 3163 3164
3100 3099 3098 3097 3095 3094 3093 3092 3091 3090 3089 3088 3087 3086 3085 3084 3083 3082 3081 3080 3079 3079 3078 3077 3077 3076 3077 3077 3078 3078 3077 3076 3075 3075 3078 3080 3080 3081 3081 3081 3082 3083 3084 3085 3088 3091 3094 3097 3100 3104 3106 3108 3112 3115 3119 3124 3125 3124 3123 3126 3129 3132 3133 3135 3138 3139 3140 3142 3143 3145 3145 3146 3147 3149 3149 3150 3152 3154 3155 3157 3159 3159 3161 3162 3159 3158 3161 3163
3099 3098 3097 3095 3094 3093 3092 3091 3090 3089 3088 3086 3085 3084 3083 3082 3081 3080 3079 3077 3077 3076 3076 3075 3075 3074 3074 3074 3074 3075 3076 3074 3072 3071 3075 3077 3077 3078 3079 3079 3080 3080 3081 3082 3084 3087 3089 3092 3096 3100 3102 3105 3109 3111 3116 3119 3119 3119 3120 3123 3126 3127 3130 3132 3135 3137 3138 3139 3141 3141 3141 3143 3145 3147 3146 3147 3150 3151 3154 3155 3157 3158 3159 3161 3160 3158 3159 3162
3098 3097 3096 3095 3094 3093 3092 3090 3089 3087 3086 3084 3083 3082 3080 3079 3078 3077 3076 3075 3073 3072 3072 3072 3072 3072 3071 3071 3071 3072 3073 3072 3070 3068 3071 3073 3074 3075 3076 3076 3077 3078 3079 3080 3081 3083 3086 3089 3093 3097 3099 3102 3105 3107 3111 3113 3114 3116 3118 3120 3122 3124 3127 3129 3131 3134 3135 3136 3138 3138 3138 3140 3142 3143 3142 3144 3147 3149 3151 3153 3154 3156 3156 3158 3159 3157 3157 3160
3097 3096 3095 3094 3093 3092 3090 3089 3087 3086 3084 3083 3081 3079 3078 3077 3075 3074 3073 3071 3070 3069 3068 3068 3068 3068 3068 3067 3067 3068 3070 3070 3067 3066 3068 3070 3070 3071 3072 3073 3074 3075 3076 3077 3078 3080 3083 3085 3089 3094 3096 3097 3100 3102 3105 3108 3111 3114 3116 3117 3118 3122 3123 3125 3128 3130 3132 3133 3134 3136 3136 3138 3139 3138 3138 3141 3145 3146 3148 3149 3151 3153 3154 3156 3157 3154 3154 3157
3097 3095 3094 3093 3092 3090 3089 3087 3086 3084 3082 3080 3079 3077 3075 3074 3072 3071 3069 3068 3067 3066 3065 3064 3064 3064 3064 3063 3062 3065 3067 3066 3064 3063 3064 3066 3067 3068 3069 3070 3071 3072 3073 3074 3075 3077 3080 3082 3084 3087 3090 3093 3096 3098 3100 3104 3108 3110 3113 3113 3114 3118 3118 3120 3124 3126 3128 3128 3131 3135 3133 3132 3133 3132 3135 3140 3143 3144 3145 3146 3148 3150 3151 3154 3154 3151 3152 3155
3096 3095 3093 3092 3090 3088 3087 3085 3083 3081 3080 3078 3076 3074 3072 3070 3068 3067 3066 3064 3063 3062 3061 3061 3060 3060 3059 3057 3059 3063 3063 3062 3061 3061 3060 3062 3064 3065 3066 3067 3068 3068 3070 3071 3072 3074 3076 3079 3081 3082 3085 3088 3091 3095 3097 3101 3104 3105 3109 3109 3111 3112 3110 3114 3120 3122 3123 3124 3128 3131 3127 3125 3128 3129 3133 3137 3140 3142 3143 3143 3146 3148 3148 3151 3152 3148 3149 3152
3095 3093 3092 3090 3088 3087 3085 3083 3081 3079 3077 3074 3072 3070 3068 3066 3064 3063 3062 3060 3059 3058 3058 3057 3057 3057 3054 3053 3056 3059 3058 3058 3058 3057 3058 3059 3060 3062 3063 3063 3065 3065 3066 3068 3069 3071 3072 3075 3077 3078 3080 3081 3086 3091 3094 3096 3098 3101 3104 3105 3106 3106 3104 3109 3114 3116 3118 3120 3124 3126 3122 3120 3124 3127 3131 3134 3136 3139 3140 3141 3144 3145 3146 3148 3150 3147 3145 3148
3094 3092 3090 3088 3087 3085 3083 3081 3078 3076 3074 3071 3069 3067 3064 3062 3060 3059 3057 3057 3056 3054 3054 3054 3053 3053 3050 3049 3052 3054 3054 3055 3054 3054 3055 3056 3057 3059 3060 3061 3062 3063 3063 3064 3066 3068 3069 3071 3073 3074 3076 3079 3082 3084 3087 3090 3092 3096 3097 3097 3098 3099 3101 3104 3108 3110 3112 3115 3120 3121 3116 3116 3121 3124 3128 3131 3132 3135 3138 3139 3140 3142 3143 3145 3149 3147 3143 3145
3092 3090 3089 3087 3085 3083 3081 3078 3075 3073 3071 3068 3066 3063 3060 3058 3057 3055 3054 3053 3052 3051 3050 3050 3050 3049 3048 3047 3048 3050 3051 3051 3051 3051 3051 3053 3054 3056 3057 3058 3059 3059 3060 3062 3063 3064 3066 3068 3070 3072 3074 3077 3079 3080 3083 3085 3086 3089 3089 3090 3092 3094 3097 3098 3101 3105 3107 3110 3114 3115 3112 3112 3116 3120 3124 3128 3129 3131 3134 3136 3137 3138 3140 3143 3146 3146 3142 3142
3091 3089 3087 3085 3083 3081 3078 3075 3073 3070 3068 3065 3063 3060 3057 3055 3053 3052 3050 3049 3048 3048 3047 3047 3047 3046 3045 3045 3046 3047 3049 3049 3049 3048 3049 3050 3051 3053 3054 3055 3056 3057 3058 3059 3060 3062 3064 3065 3067 3069 3071 3074 3076 3078 3079 3077 3078 3082 3084 3085 3087 3089 3091 3091 3095 3101 3103 3105 3108 3111 3109 3108 3113 3118 3122 3125 3125 3127 3129 3132 3132 3133 3137 3139 3141 3143 3141 3139
3089 3087 3086 3083 3081 3078 3075 3073 3070 3067 3065 3062 3060 3057 3054 3052 3050 3050 3048 3046 3046 3045 3044 3044 3044 3045 3044 3043 3044 3045 3047 3049 3048 3046 3047 3048 3049 3050 3052 3052 3054 3055 3056 3057 3058 3059 3061 3063 3065 3067 3068 3069 3071 3072 3071 3070 3072 3075 3077 3078 3080 3083 3085 3085 3091 3095 3097 3101 3106 3109 3106 3105 3112 3117 3119 3121 3123 3124 3125 3128 3129 3129 3134 3136 3137 3139 3139 3137
3088 3086 3084 3081 3079 3076 3073 3070 3067 3064 3061 3059 3057 3055 3052 3049 3048 3047 3045 3043 3043 3043 3042 3042 3042 3043 3043 3042 3043 3045 3046 3047 3046 3045 3045 3047 3047 3048 3049 3050 3051 3052 3054 3056 3056 3056 3059 3061 3062 3062 3062 3063 3065 3066 3066 3068 3071 3072 3073 3074 3075 3078 3079 3081 3088 3092 3096 3100 3103 3104 3102 3103 3109 3112 3115 3118 3120 3121 3122 3125 3125 3126 3130 3133 3134 3135 3136 3136
3086 3084 3082 3079 3077 3074 3071 3068 3065 3062 3059 3056 3055 3053 3051 3048 3046 3046 3042 3040 3041 3039 3040 3042 3041 3040 3041 3041 3043 3045 3045 3045 3044 3044 3044 3045 3045 3046 3047 3048 3049 3050 3051 3053 3054 3054 3056 3057 3056 3056 3057 3060 3062 3064 3066 3069 3070 3070 3072 3072 3074 3076 3076 3081 3087 3091 3095 3097 3098 3099 3098 3099 3104 3108 3112 3115 3118 3118 3119 3121 3121 3122 3127 3129 3131 3132 3133 3135
3084 3082 3080 3078 3075 3072 3069 3066 3063 3060 3057 3054 3052 3050 3049 3046 3045 3045 3041 3038 3038 3036 3036 3038 3038 3038 3038 3040 3041 3042 3043 3042 3042 3043 3044 3044 3045 3045 3046 3047 3048 3048 3048 3050 3052 3053 3053 3052 3052 3053 3055 3058 3061 3063 3065 3067 3068 3068 3069 3070 3072 3073 3075 3080 3085 3088 3092 3094 3093 3095 3094 3096 3100 3105 3109 3112 3113 3113 3116 3119 3119 3121 3124 3126 3128 3129 3131 3133
3083 3081 3079 3076 3074 3071 3068 3064 3061 3058 3055 3053 3050 3048 3046 3045 3044 3042 3038 3035 3035 3033 3032 3033 3034 3034 3035 3036 3038 3039 3039 3038 3038 3040 3042 3043 3043 3043 3044 3045 3045 3045 3047 3048 3049 3050 3049 3047 3048 3051 3054 3056 3059 3061 3062 3063 3065 3066 3067 3067 3067 3070 3073 3077 3082 3086 3089 3090 3090 3091 3091 3092 3096 3100 3105 3107 3108 3108 3110 3113 3116 3119 3121 3122 3124 3127 3129 3130
3082 3079 3077 3075 3072 3069 3066 3063 3060 3057 3054 3052 3049 3047 3045 3043 3041 3040 3037 3034 3033 3032 3030 3030 3031 3032 3033 3035 3035 3036 3035 3035 3036 3037 3040 3040 3039 3040 3041 3043 3043 3043 3044 3045 3045 3045 3044 3044 3046 3049 3052 3053 3055 3057 3059 3061 3063 3063 3063 3062 3062 3066 3069 3071 3077 3082 3084 3085 3086 3087 3088 3089 3093 3096 3098 3101 3103 3104 3105 3106 3109 3114 3117 3118 3121 3123 3126 3126
3080 3078 3076 3073 3071 3068 3065 3062 3059 3056 3053 3050 3048 3045 3044 3042 3040 3038 3036 3033 3031 3031 3029 3028 3030 3031 3033 3034 3034 3034 3034 3034 3034 3035 3037 3037 3037 3038 3038 3039 3040 3040 3041 3041 3042 3042 3041 3042 3045 3047 3048 3050 3051 3053 3056 3057 3058 3059 3059 3060 3060 3063 3065 3067 3073 3078 3081 3082 3083 3085 3085 3085 3088 3089 3091 3095 3098 3100 3101 3101 3102 3107 3111 3114 3117 3119 3121 3122
3079 3077 3074 3072 3070 3067 3063 3060 3058 3055 3052 3049 3047 3045 3043 3042 3040 3038 3036 3033 3030 3029 3029 3028 3029 3031 3032 3032 3032 3032 3033 3032 3031 3033 3034 3034 3035 3036 3035 3036 3037 3036 3037 3038 3039 3039 3039 3041 3043 3043 3044 3046 3048 3049 3051 3053 3055 3055 3055 3057 3059 3061 3063 3066 3071 3074 3075 3075 3076 3081 3079 3076 3081 3084 3084 3089 3093 3095 3098 3098 3098 3101 3106 3109 3112 3114 3116 3118
3078 3076 3074 3071 3068 3066 3063 3059 3056 3053 3050 3048 3046 3044 3043 3041 3040 3038 3036 3034 3030 3028 3028 3029 3030 3030 3030 3031 3030 3030 3031 3030 3030 3031 3031 3031 3031 3033 3033 3033 3034 3033 3034 3037 3037 3035 3036 3038 3039 3040 3041 3044 3045 3046 3047 3051 3052 3050 3051 3056 3059 3060 3061 3063 3067 3068 3066 3066 3071 3076 3073 3071 3076 3078 3080 3085 3087 3089 3093 3094 3095 3097 3100 3104 3107 3110 3112 3113
3077 3075 3073 3070 3067 3065 3063 3059 3056 3053 3050 3047 3045 3044 3043 3041 3040 3039 3037 3035 3031 3029 3029 3029 3030 3029 3030 3030 3029 3029 3030 3028 3028 3028 3029 3029 3028 3030 3030 3030 3031 3031 3032 3035 3032 3031 3033 3035 3035 3036 3039 3040 3041 3041 3044 3048 3048 3045 3050 3055 3057 3057 3059 3060 3061 3062 3062 3064 3067 3069 3069 3069 3070 3071 3075 3080 3081 3084 3088 3090 3092 3092 3093 3097 3101 3105 3108 3108
3077 3075 3072 3069 3066 3064 3061 3059 3056 3053 3050 3047 3045 3044 3043 3042 3041 3040 3040 3037 3031 3030 3030 3029 3029 3028 3029 3029 3028 3027 3027 3026 3025 3025 3026 3027 3027 3027 3026 3026 3029 3029 3030 3031 3028 3028 3030 3030 3031 3034 3036 3036 3036 3038 3041 3045 3044 3044 3050 3053 3054 3056 3057 3058 3058 3057 3060 3061 3058 3060 3065 3064 3063 3065 3070 3074 3077 3080 3082 3084 3088 3090 3089 3091 3096 3100 3102 3104
3076 3074 3072 3069 3066 3064 3061 3059 3056 3052 3049 3046 3045 3044 3042 3042 3041 3040 3041 3038 3032 3029 3030 3028 3028 3028 3027 3027 3026 3025 3024 3024 3023 3022 3022 3023 3024 3025 3023 3024 3027 3026 3028 3028 3026 3027 3027 3027 3029 3032 3032 3032 3034 3037 3040 3042 3042 3045 3049 3050 3052 3055 3055 3057 3056 3055 3055 3052 3050 3054 3058 3057 3054 3059 3065 3069 3072 3075 3076 3079 3084 3088 3087 3086 3090 3095 3098 3099
3075 3073 3071 3068 3065 3063 3060 3057 3054 3051 3048 3046 3044 3043 3043 3042 3041 3041 3040 3037 3031 3029 3029 3028 3028 3027 3026 3025 3024 3023 3022 3021 3020 3018 3018 3019 3020 3022 3022 3023 3025 3025 3025 3025 3024 3024 3025 3026 3028 3028 3029 3031 3033 3035 3037 3040 3042 3046 3047 3047 3049 3051 3052 3054 3054 3054 3051 3045 3046 3049 3051 3052 3051 3054 3061 3066 3068 3069 3073 3077 3080 3084 3084 3082 3086 3091 3094 3095
3074 3072 3070 3068 3065 3062 3059 3056 3053 3051 3048 3046 3045 3044 3043 3042 3041 3041 3038 3034 3030 3029 3027 3027 3027 3026 3025 3023 3021 3020 3020 3018 3017 3016 3015 3015 3017 3019 3020 3021 3022 3023 3023 3022 3022 3022 3023 3023 3024 3025 3027 3029 3032 3033 3035 3038 3041 3043 3043 3043 3044 3044 3046 3050 3052 3051 3045 3041 3044 3046 3047 3050 3050 3053 3059 3064 3066 3067 3071 3074 3076 3079 3080 3080 3083 3087 3091 3092
3073 3071 3069 3067 3065 3062 3060 3057 3054 3052 3049 3046 3045 3044 3043 3042 3041 3040 3036 3032 3030 3028 3026 3026 3025 3023 3022 3020 3018 3017 3016 3014 3013 3013 3012 3013 3014 3016 3017 3017 3018 3020 3019 3019 3020 3020 3019 3019 3021 3023 3024 3026 3028 3029 3031 3034 3037 3039 3039 3039 3038 3036 3040 3044 3044 3042 3039 3039 3043 3044 3046 3047 3046 3050 3057 3060 3063 3064 3067 3070 3071 3074 3076 3077 3080 3083 3087 3090
3072 3070 3069 3067 3064 3062 3060 3056 3053 3051 3049 3047 3045 3044 3044 3044 3041 3038 3035 3033 3031 3028 3026 3024 3022 3020 3019 3017 3014 3013 3013 3009 3008 3009 3010 3010 3012 3013 3014 3015 3017 3017 3017 3018 3020 3019 3018 3018 3019 3021 3021 3022 3024 3025 3026 3028 3031 3033 3033 3033 3032 3031 3035 3037 3037 3036 3036 3037 3040 3043 3045 3045 3043 3047 3052 3056 3059 3060 3063 3066 3067 3069 3070 3072 3077 3081 3084 3087
3071 3069 3068 3066 3064 3061 3058 3055 3053 3051 3049 3048 3045 3044 3044 3043 3040 3037 3035 3033 3031 3028 3026 3024 3020 3018 3017 3015 3012 3011 3010 3007 3005 3006 3008 3009 3010 3011 3012 3013 3014 3016 3016 3017 3018 3017 3015 3014 3015 3017 3018 3019 3021 3022 3023 3027 3029 3029 3030 3032 3030 3028 3031 3032 3031 3032 3034 3036 3038 3040 3041 3041 3040 3043 3049 3053 3056 3058 3060 3062 3064 3065 3066 3069 3074 3078 3080 3084
3070 3068 3067 3065 3063 3060 3057 3055 3053 3051 3049 3047 3045 3044 3044 3042 3039 3036 3034 3031 3029 3026 3024 3022 3019 3017 3015 3014 3012 3009 3008 3007 3005 3007 3007 3008 3009 3009 3009 3010 3012 3014 3016 3016 3015 3015 3014 3012 3012 3014 3016 3018 3020 3020 3022 3026 3026 3028 3030 3029 3027 3028 3030 3031 3030 3031 3034 3035 3035 3037 3038 3039 3040 3043 3048 3050 3051 3055 3057 3057 3060 3061 3063 3067 3070 3073 3077 3080
3069 3067 3066 3064 3061 3059 3057 3055 3053 3051 3050 3047 3046 3045 3044 3042 3039 3036 3033 3030 3028 3026 3022 3020 3018 3017 3015 3013 3011 3009 3008 3008 3007 3006 3007 3008 3008 3008 3008 3009 3010 3012 3013 3014 3014 3013 3012 3011 3012 3014 3014 3015 3017 3018 3020 3022 3022 3025 3026 3024 3026 3030 3032 3032 3032 3033 3035 3035 3034 3036 3038 3039 3040 3041 3043 3046 3047 3051 3052 3053 3056 3057 3059 3063 3066 3069 3073 3076
3068 3067 3065 3064 3061 3059 3056 3054 3052 3051 3049 3047 3046 3045 3043 3041 3038 3035 3033 3031 3028 3025 3023 3021 3018 3017 3015 3013 3011 3009 3009 3008 3007 3007 3007 3007 3007 3007 3008 3009 3010 3011 3011 3013 3014 3011 3011 3010 3011 3013 3013 3013 3015 3018 3020 3021 3022 3023 3023 3024 3029 3032 3031 3031 3031 3032 3034 3035 3035 3035 3035 3037 3037 3036 3038 3042 3044 3046 3048 3050 3053 3054 3057 3061 3063 3066 3070 3074
3067 3066 3065 3064 3061 3058 3056 3054 3052 3050 3049 3047 3045 3042 3040 3039 3037 3035 3033 3031 3028 3025 3024 3023 3020 3017 3016 3014 3012 3010 3010 3009 3008 3007 3007 3007 3006 3005 3007 3008 3009 3010 3010 3013 3013 3011 3010 3010 3009 3011 3012 3013 3015 3017 3018 3020 3021 3022 3023 3026 3027 3026 3026 3026 3027 3029 3031 3033 3033 3033 3032 3032 3032 3033 3035 3038 3040 3043 3046 3048 3050 3052 3056 3059 3061 3064 3068 3071
3066 3065 3064 3063 3060 3058 3056 3053 3051 3050 3049 3047 3044 3042 3040 3038 3037 3035 3032 3030 3028 3025 3024 3023 3021 3018 3016 3015 3013 3011 3010 3009 3008 3007 3007 3007 3005 3005 3007 3007 3007 3008 3010 3012 3012 3010 3010 3010 3009 3008 3011 3014 3015 3015 3015 3016 3018 3021 3023 3024 3023 3022 3023 3024 3025 3026 3028 3031 3031 3030 3029 3027 3028 3031 3033 3035 3036 3040 3043 3045 3047 3050 3055 3058 3060 3062 3066 3068
3065 3063 3063 3061 3060 3058 3056 3054 3052 3050 3048 3046 3044 3042 3040 3037 3035 3033 3032 3030 3027 3025 3024 3022 3021 3018 3016 3014 3014 3012 3010 3008 3007 3007 3007 3007 3006 3005 3006 3007 3007 3008 3009 3011 3011 3011 3010 3011 3011 3009 3010 3013 3012 3011 3013 3014 3016 3017 3017 3018 3019 3020 3022 3023 3025 3025 3025 3027 3027 3027 3026 3024 3025 3029 3031 3033 3034 3038 3042 3043 3045 3049 3053 3056 3058 3060 3064 3066
3064 3063 3063 3062 3060 3058 3056 3054 3051 3049 3047 3045 3043 3041 3040 3037 3034 3033 3031 3030 3027 3025 3023 3021 3020 3018 3016 3014 3014 3013 3011 3009 3008 3007 3007 3006 3006 3006 3005 3006 3007 3008 3009 3010 3011 3011 3011 3012 3012 3010 3009 3010 3010 3011 3014 3015 3015 3015 3015 3016 3017 3019 3021 3022 3023 3024 3023 3022 3022 3024 3024 3022 3023 3028 3030 3031 3032 3036 3040 3042 3043 3047 3051 3053 3056 3058 3061 3064
3065 3064 3063 3062 3060 3058 3056 3053 3050 3048 3046 3045 3043 3042 3040 3037 3034 3032 3031 3029 3026 3024 3022 3021 3020 3018 3017 3015 3014 3013 3011 3009 3008 3008 3007 3006 3005 3005 3005 3006 3008 3009 3009 3010 3011 3012 3012 3013 3013 3011 3009 3009 3011 3013 3014 3015 3016 3016 3017 3017 3017 3019 3020 3020 3021 3023 3022 3019 3019 3022 3022 3020 3022 3026 3028 3029 3031 3034 3038 3040 3042 3046 3049 3051 3054 3056 3059 3062
3065 3064 3063 3062 3061 3059 3057 3054 3051 3050 3048 3046 3044 3042 3040 3037 3035 3032 3030 3027 3025 3024 3022 3020 3019 3019 3017 3016 3014 3013 3012 3010 3008 3007 3007 3006 3005 3005 3006 3007 3008 3008 3009 3010 3011 3012 3012 3013 3014 3011 3009 3010 3012 3014 3014 3015 3015 3015 3015 3016 3016 3018 3019 3019 3020 3020 3019 3017 3017 3019 3020 3019 3021 3024 3026 3028 3030 3033 3036 3039 3042 3045 3047 3050 3052 3055 3058 3060
3065 3063 3062 3062 3061 3059 3057 3054 3052 3051 3049 3046 3043 3041 3039 3037 3035 3032 3030 3027 3025 3024 3023 3021 3020 3019 3017 3016 3014 3013 3013 3011 3008 3007 3007 3006 3005 3005 3006 3007 3007 3008 3009 3009 3010 3011 3012 3013 3014 3013 3011 3011 3012 3013 3013 3013 3013 3012 3013 3015 3015 3017 3019 3017 3017 3018 3017 3016 3015 3016 3017 3018 3020 3023 3025 3027 3030 3032 3035 3038 3041 3043 3046 3049 3050 3053 3057 3058
3064 3063 3062 3060 3059 3059 3056 3054 3052 3050 3047 3045 3042 3040 3038 3037 3035 3033 3029 3026 3024 3024 3023 3022 3020 3019 3017 3016 3015 3013 3013 3013 3011 3008 3007 3007 3006 3006 3006 3007 3007 3008 3009 3009 3010 3011 3012 3012 3013 3013 3012 3011 3011 3010 3010 3011 3013 3012 3013 3013 3013 3015 3016 3016 3015 3016 3017 3016 3015 3015 3015 3018 3021 3023 3025 3027 3030 3032 3034 3036 3039 3041 3045 3048 3049 3050 3053 3055
3064 3064 3063 3060 3058 3057 3055 3053 3051 3049 3047 3044 3042 3039 3037 3035 3034 3032 3030 3026 3024 3023 3023 3022 3021 3019 3017 3016 3015 3013 3013 3013 3012 3010 3008 3007 3007 3006 3006 3007 3008 3009 3009 3010 3011 3011 3012 3012 3013 3013 3012 3011 3011 3011 3012 3012 3013 3013 3012 3012 3013 3013 3014 3015 3015 3016 3017 3018 3017 3016 3016 3019 3022 3024 3026 3028 3029 3032 3033 3035 3037 3040 3042 3045 3046 3048 3050 3052
3065 3064 3063 3061 3059 3058 3056 3054 3052 3050 3048 3046 3042 3039 3037 3035 3033 3032 3030 3027 3025 3024 3023 3021 3020 3018 3017 3015 3014 3012 3012 3012 3011 3011 3010 3008 3007 3007 3007 3007 3009 3009 3009 3010 3011 3012 3012 3012 3013 3013 3012 3011 3011 3013 3014 3013 3012 3012 3012 3012 3012 3012 3012 3014 3014 3015 3018 3018 3017 3017 3018 3021 3024 3026 3027 3028 3030 3031 3033 3034 3037 3040 3041 3042 3044 3046 3047 3048
3065 3064 3062 3060 3059 3058 3057 3056 3054 3052 3050 3047 3043 3041 3038 3036 3034 3033 3030 3027 3025 3023 3022 3020 3018 3016 3015 3015 3013 3011 3011 3011 3010 3010 3010 3008 3007 3007 3007 3008 3009 3009 3009 3011 3011 3012 3012 3012 3013 3012 3011 3011 3011 3011 3012 3012 3012 3012 3011 3011 3012 3012 3011 3013 3014 3016 3018 3017 3017 3018 3019 3021 3024 3026 3026 3028 3029 3031 3032 3035 3037 3039 3040 3042 3043 3044 3045 3046
3065 3064 3061 3059 3058 3057 3055 3054 3053 3051 3049 3046 3045 3043 3041 3038 3036 3034 3031 3029 3025 3023 3021 3019 3017 3015 3014 3014 3013 3011 3011 3011 3010 3010 3010 3009 3008 3007 3007 3008 3009 3009 3010 3011 3012 3012 3012 3012 3013 3012 3012 3011 3011 3009 3010 3011 3011 3010 3011 3011 3012 3012 3013 3014 3015 3016 3018 3018 3018 3019 3020 3022 3024 3024 3025 3028 3029 3031 3033 3034 3036 3039 3041 3042 3043 3044 3044 3045
3065 3063 3061 3059 3057 3056 3054 3053 3051 3049 3048 3047 3047 3045 3042 3039 3037 3034 3032 3030 3027 3024 3022 3019 3017 3015 3015 3014 3012 3011 3011 3011 3011 3010 3009 3008 3009 3008 3008 3008 3009 3010 3010 3011 3012 3012 3012 3013 3013 3013 3012 3011 3011 3010 3010 3009 3009 3009 3010 3010 3011 3012 3013 3014 3015 3016 3018 3018 3019 3020 3021 3022 3023 3024 3026 3029 3030 3031 3033 3034 3036 3039 3040 3040 3042 3043 3043 3044
3064 3062 3060 3058 3056 3055 3053 3053 3051 3050 3050 3049 3046 3044 3042 3039 3037 3034 3031 3030 3029 3026 3023 3020 3018 3015 3013 3014 3013 3011 3010 3010 3010 3009 3008 3008 3008 3008 3008 3007 3008 3009 3010 3011 3012 3012 3012 3013 3014 3014 3014 3011 3011 3011 3009 3008 3008 3008 3008 3008 3009 3011 3012 3014 3015 3016 3017 3018 3020 3021 3021 3022 3024 3024 3026 3029 3030 3031 3033 3035 3037 3039 3039 3039 3040 3041 3042 3043
3064 3062 3059 3057 3055 3054 3052 3051 3051 3051 3050 3048 3045 3044 3042 3039 3038 3035 3030 3028 3028 3026 3023 3020 3018 3015 3013 3013 3013 3012 3011 3010 3010 3009 3008 3007 3007 3007 3007 3007 3007 3009 3010 3011 3012 3012 3012 3014 3014 3015 3014 3012 3011 3011 3009 3008 3008 3006 3005 3007 3008 3009 3012 3014 3015 3016 3018 3018 3019 3021 3022 3023 3024 3025 3026 3029 3031 3032 3033 3035 3036 3037 3038 3038 3039 3040 3041 3042